Regional Weather Roundup
Issued by NWS

Home | Current Version | Previous Version | Text Only | Print | Product List | Glossary On
Versions: 1 2 3 4 5 6 7 8 9 10 11 12 13 14 15 16 17 18 19 20 21 22 23 24 25 26 27 28 29 30 31 32 33 34 35 36 37 38 39 40 41 42 43 44 45 46 47 48 49 50
000
ASUS43 KTOP 021159
RWRKS

WEATHER ROUNDUP FOR KANSAS
NATIONAL WEATHER SERVICE GOODLAND KS
700 AM CDT SUN AUG 02 2015

NOTE:  "FAIR" INDICATES FEW OR NO CLOUDS BELOW 12,000 FEET WITH NO
SIGNIFICANT WEATHER AND/OR OBSTRUCTIONS TO VISIBILITY.

KSZ001>006-013>018-027>032-041>047-021300-
NORTHWEST KANSAS

CITY           SKY/WX    TMP DP  RH WIND       PRES   REMARKS
GOODLAND       CLEAR     67  64  90 S6        30.00R
6HR MIN TEMP:  64; 6HR MAX TEMP:  71;

HAYS           CLEAR     70  63  78 S5        29.95R
HILL CITY      CLEAR     69  66  90 SW3       29.95R
6HR MIN TEMP:  68; 6HR MAX TEMP:  75;

RUSSELL        PTCLDY    71  69  93 S9        29.93R
6HR MIN TEMP:  70; 6HR MAX TEMP:  74;

$$

KSZ061>065-074>080-084>089-021300-
SOUTHWEST KANSAS

CITY           SKY/WX    TMP DP  RH WIND       PRES   REMARKS
DODGE CITY     MOCLDY    67  66  97 S3        29.97S
6HR MIN TEMP:  67; 6HR MAX TEMP:  72;

ELKHART          N/A     68  59  73 S10         N/A
GARDEN CITY    PTCLDY    68  66  93 S5        29.98R FOG
6HR MIN TEMP:  67; 6HR MAX TEMP:  72;

GREAT BEND     CLEAR     70  64  83 S5        29.95S
LIBERAL        CLOUDY    70  57  64 CALM      29.97S
PRATT          PTCLDY    70  68  94 S5        29.98R
$$

KSZ066>073-081>083-090>101-021300-
SOUTHEAST KANSAS

CITY           SKY/WX    TMP DP  RH WIND       PRES   REMARKS
CHANUTE        CLEAR     70  64  81 S6        29.96S
6HR MIN TEMP:  68; 6HR MAX TEMP:  72;

COFFEYVILLE    PTCLDY    67  66  97 CALM      29.96S
6HR MIN TEMP:  66; 6HR MAX TEMP:  71;

HUTCHINSON     CLEAR     71  67  87 S5        29.96R
6HR MIN TEMP:  71; 6HR MAX TEMP:  77;

MEDICINE LODGE   N/A     71  69  93 SE3       29.95S
NEWTON         CLEAR     70  63  78 S6        29.99R
PARSONS        CLEAR     66  65  96 CALM      29.98R
6HR MIN TEMP:  65; 6HR MAX TEMP:  70;

WICHITA INTL   PTCLDY    71  67  87 S7        29.95S
6HR MIN TEMP:  71; 6HR MAX TEMP:  76;

WICHITA JABRA  CLEAR     70  66  87 S6        29.96R
6HR MIN TEMP:  70; 6HR MAX TEMP:  77;

WINFIELD       CLEAR     71  67  87 SE5       29.97R
6HR MIN TEMP:  70; 6HR MAX TEMP:  73;

$$

KSZ007>012-019>026-033>040-048>060-102>105-021300-
NORTHEAST KANSAS

CITY           SKY/WX    TMP DP  RH WIND       PRES   REMARKS
CONCORDIA      CLEAR     72  69  90 S10       29.91S
6HR MIN TEMP:  71; 6HR MAX TEMP:  77;

EMPORIA        PTCLDY    69  66  90 S7        29.95R
6HR MIN TEMP:  69; 6HR MAX TEMP:  74;

LAWRENCE       CLEAR     70  67  90 E6        29.93R
6HR MIN TEMP:  68; 6HR MAX TEMP:  70;

MANHATTAN      CLEAR     72  69  90 SW7       29.91R
6HR MIN TEMP:  72; 6HR MAX TEMP:  77;

OLATHE IND     PTCLDY    72  67  84 S8        29.95R
6HR MIN TEMP:  69; 6HR MAX TEMP:  72;

OLATHE EXE     CLEAR     69  67  93 S3        29.94R
6HR MIN TEMP:  69; 6HR MAX TEMP:  72;

SALINA         PTCLDY    73  69  87 S6        29.93R
6HR MIN TEMP:  72; 6HR MAX TEMP:  77;

TOPEKA BILLARD PTCLDY    75  67  76 S3        29.92R
6HR MIN TEMP:  71; 6HR MAX TEMP:  76;

TOPEKA FORBES  FAIR      73  67  81 S6        29.93R
6HR MIN TEMP:  72; 6HR MAX TEMP:  77;

$$


USA.gov is the U.S. government's official web portal to all federal, state and local government web resources and services.